When you browse on this site, cookies collect data to enhance your experience and personalize the content and advertising you see.
Visit our Privacy Policy to learn more. By continuing to use the site, you agree to this use of cookies and data.
  • In France
  • List of Countries
  • For 7 days
  • Water Temperature
  • Satellite Maps
  • Weather Map
  • Weather Widgets
  • user-avatar
    Login

    Hourly Weather Hotetovo

    Today, 21 May, Tuesday

    Time Temperature Precipitation Wind Pressure Humidity
    00:00 +14°C° 0 mm 2 mps 746 mmHg 84%
    01:00 +14°C° 0 mm 2 mps 746 mmHg 85%
    02:00 +13°C° 0 mm 2 mps 746 mmHg 86%
    03:00 +13°C° 0 mm 2 mps 746 mmHg 86%
    04:00 +14°C° 0 mm 2 mps 746 mmHg 86%
    05:00 +14°C° 0 mm 2 mps 746 mmHg 87%
    06:00 +16°C° 0 mm 2 mps 746 mmHg 81%
    07:00 +17°C° 0 mm 2 mps 746 mmHg 75%
    08:00 +19°C° 0 mm 2 mps 746 mmHg 68%
    09:00 +20°C° 0 mm 3 mps 746 mmHg 65%
    10:00 +21°C° 0 mm 3 mps 746 mmHg 62%
    11:00 +22°C° 0 mm 4 mps 746 mmHg 58%
    12:00 +22°C° 0 mm 4 mps 746 mmHg 57%
    13:00 +22°C° 0 mm 4 mps 745 mmHg 56%
    14:00 +23°C° 0 mm 5 mps 745 mmHg 55%
    15:00 +22°C° 0 mm 4 mps 744 mmHg 59%
    16:00 +22°C° 0 mm 4 mps 744 mmHg 62%
    17:00 +21°C° 0 mm 3 mps 744 mmHg 66%
    18:00 +19°C° 0 mm 3 mps 744 mmHg 70%
    19:00 +17°C° 0 mm 3 mps 743 mmHg 75%
    20:00 +14°C° 0 mm 3 mps 743 mmHg 80%
    21:00 +15°C° 0 mm 2 mps 743 mmHg 82%
    22:00 +14°C° 0 mm 2 mps 743 mmHg 83%
    23:00 +13°C° 0 mm 2 mps 743 mmHg 85%

    Tomorrow, 22 May, Wednesday

    Time Temperature Precipitation Wind Pressure Humidity
    00:00 +13°C° 0 mm 2 mps 743 mmHg 86%
    01:00 +13°C° 0 mm 2 mps 742 mmHg 87%
    02:00 +11°C° 0 mm 3 mps 742 mmHg 89%
    03:00 +13°C° 0 mm 2 mps 742 mmHg 89%
    04:00 +13°C° 0 mm 2 mps 742 mmHg 89%
    05:00 +13°C° 0 mm 2 mps 741 mmHg 90%
    06:00 +13°C° 0.2 mm 3 mps 741 mmHg 89%
    07:00 +14°C° 0.2 mm 3 mps 741 mmHg 89%
    08:00 +15°C° 0.2 mm 4 mps 741 mmHg 89%
    09:00 +17°C° 0 mm 4 mps 740 mmHg 87%
    10:00 +18°C° 0 mm 4 mps 740 mmHg 85%
    11:00 +18°C° 0 mm 4 mps 740 mmHg 84%
    12:00 +19°C° 0.1 mm 4 mps 740 mmHg 80%
    13:00 +20°C° 0.1 mm 4 mps 739 mmHg 76%
    14:00 +21°C° 0.1 mm 3 mps 739 mmHg 72%
    15:00 +21°C° 0.2 mm 3 mps 739 mmHg 74%
    16:00 +21°C° 0.2 mm 3 mps 738 mmHg 75%
    17:00 +21°C° 0.2 mm 3 mps 738 mmHg 77%
    18:00 +20°C° 0 mm 3 mps 738 mmHg 82%
    19:00 +18°C° 0 mm 2 mps 738 mmHg 87%
    20:00 +17°C° 0 mm 2 mps 737 mmHg 92%
    21:00 +16°C° 0 mm 2 mps 737 mmHg 92%
    22:00 +16°C° 0 mm 2 mps 737 mmHg 93%
    23:00 +15°C° 0 mm 2 mps 737 mmHg 93%

    Day after tomorrow, 23 May, Thursday

    Time Temperature Precipitation Wind Pressure Humidity
    00:00 +15°C° 0 mm 2 mps 737 mmHg 93%
    01:00 +14°C° 0 mm 2 mps 737 mmHg 94%
    02:00 +14°C° 0 mm 2 mps 737 mmHg 94%
    03:00 +14°C° 0 mm 2 mps 737 mmHg 94%
    04:00 +14°C° 0 mm 2 mps 737 mmHg 93%
    05:00 +15°C° 0 mm 2 mps 737 mmHg 93%
    06:00 +17°C° 0 mm 2 mps 737 mmHg 87%
    07:00 +18°C° 0 mm 3 mps 737 mmHg 81%
    08:00 +20°C° 0 mm 3 mps 737 mmHg 76%
    09:00 +22°C° 0.1 mm 3 mps 737 mmHg 69%
    10:00 +24°C° 0.1 mm 3 mps 737 mmHg 62%
    11:00 +25°C° 0.1 mm 3 mps 737 mmHg 55%
    12:00 +25°C° 0.1 mm 3 mps 737 mmHg 54%
    13:00 +26°C° 0.1 mm 3 mps 737 mmHg 53%
    14:00 +26°C° 0.1 mm 3 mps 736 mmHg 51%
    15:00 +26°C° 0.2 mm 3 mps 736 mmHg 56%
    16:00 +25°C° 0.2 mm 3 mps 736 mmHg 61%
    17:00 +25°C° 0.2 mm 2 mps 736 mmHg 66%
    18:00 +23°C° 0.2 mm 2 mps 736 mmHg 72%
    19:00 +19°C° 0.2 mm 2 mps 737 mmHg 79%
    20:00 +17°C° 0.2 mm 2 mps 737 mmHg 85%
    21:00 +18°C° 0 mm 1 mps 737 mmHg 87%
    22:00 +16°C° 0 mm 1 mps 737 mmHg 88%
    23:00 +16°C° 0 mm 1 mps 737 mmHg 89%

    24 May, Friday

    Time Temperature Precipitation Wind Pressure Humidity
    00:00 +15°C° 0 mm 1 mps 737 mmHg 90%
    01:00 +14°C° 0 mm 0 mps 737 mmHg 90%
    02:00 +14°C° 0 mm 0 mps 737 mmHg 91%
    03:00 +14°C° 0.2 mm 0 mps 737 mmHg 91%
    04:00 +14°C° 0.2 mm 0 mps 737 mmHg 90%
    05:00 +15°C° 0.2 mm 0 mps 737 mmHg 90%
    06:00 +18°C° 0.6 mm 1 mps 738 mmHg 86%
    07:00 +20°C° 0.6 mm 1 mps 738 mmHg 82%
    08:00 +21°C° 0.6 mm 1 mps 738 mmHg 79%
    09:00 +22°C° 1.6 mm 1 mps 738 mmHg 75%
    10:00 +23°C° 1.6 mm 2 mps 738 mmHg 71%
    11:00 +24°C° 1.6 mm 2 mps 738 mmHg 67%
    12:00 +24°C° 0.7 mm 2 mps 738 mmHg 66%
    13:00 +24°C° 0.7 mm 2 mps 737 mmHg 66%
    14:00 +24°C° 0.7 mm 2 mps 737 mmHg 65%
    15:00 +24°C° 0.5 mm 2 mps 737 mmHg 69%
    16:00 +24°C° 0.5 mm 2 mps 737 mmHg 73%
    17:00 +23°C° 0.5 mm 2 mps 737 mmHg 76%
    18:00 +21°C° 0.2 mm 2 mps 737 mmHg 81%
    19:00 +19°C° 0.2 mm 3 mps 736 mmHg 85%
    20:00 +18°C° 0.2 mm 3 mps 736 mmHg 89%
    21:00 +17°C° 0 mm 3 mps 736 mmHg 91%
    22:00 +17°C° 0 mm 3 mps 736 mmHg 92%
    23:00 +16°C° 0 mm 3 mps 736 mmHg 93%

    25 May, Saturday

    Time Temperature Precipitation Wind Pressure Humidity
    00:00 +16°C° 0.5 mm 2 mps 736 mmHg 94%
    01:00 +15°C° 0.5 mm 2 mps 736 mmHg 94%
    02:00 +15°C° 0.5 mm 2 mps 736 mmHg 95%
    03:00 +15°C° 0 mm 2 mps 736 mmHg 95%
    04:00 +15°C° 0 mm 2 mps 735 mmHg 94%
    05:00 +16°C° 0 mm 2 mps 735 mmHg 94%
    06:00 +17°C° 0.2 mm 3 mps 735 mmHg 89%
    07:00 +19°C° 0.2 mm 3 mps 735 mmHg 84%
    08:00 +20°C° 0.2 mm 4 mps 735 mmHg 79%
    09:00 +21°C° 0.3 mm 4 mps 735 mmHg 75%
    10:00 +22°C° 0.3 mm 4 mps 735 mmHg 72%
    11:00 +22°C° 0.3 mm 5 mps 735 mmHg 69%
    12:00 +22°C° 0.8 mm 5 mps 734 mmHg 70%
    13:00 +22°C° 0.8 mm 5 mps 734 mmHg 72%
    14:00 +22°C° 0.8 mm 5 mps 734 mmHg 73%
    15:00 +22°C° 0.5 mm 4 mps 733 mmHg 75%
    16:00 +21°C° 0.5 mm 4 mps 733 mmHg 77%
    17:00 +21°C° 0.5 mm 3 mps 733 mmHg 79%
    18:00 +20°C° 1.9 mm 3 mps 733 mmHg 83%
    19:00 +18°C° 1.9 mm 2 mps 733 mmHg 88%
    20:00 +17°C° 1.9 mm 2 mps 732 mmHg 92%
    21:00 +16°C° 0.3 mm 2 mps 732 mmHg 93%
    22:00 +16°C° 0.3 mm 2 mps 732 mmHg 94%
    23:00 +15°C° 0.3 mm 2 mps 732 mmHg 95%

    26 May, Sunday

    Time Temperature Precipitation Wind Pressure Humidity
    00:00 +15°C° 0 mm 2 mps 732 mmHg 96%
    01:00 +14°C° 0 mm 2 mps 732 mmHg 96%
    02:00 +14°C° 0 mm 2 mps 732 mmHg 97%
    03:00 +14°C° 0 mm 2 mps 732 mmHg 97%
    04:00 +13°C° 0 mm 3 mps 733 mmHg 97%
    05:00 +14°C° 0 mm 3 mps 733 mmHg 97%
    06:00 +14°C° 0 mm 3 mps 733 mmHg 93%
    07:00 +16°C° 0 mm 3 mps 733 mmHg 90%
    08:00 +16°C° 0 mm 3 mps 733 mmHg 87%
    09:00 +18°C° 0 mm 4 mps 733 mmHg 78%
    10:00 +19°C° 0 mm 4 mps 733 mmHg 68%
    11:00 +21°C° 0 mm 4 mps 734 mmHg 59%
    12:00 +21°C° 0 mm 4 mps 734 mmHg 57%
    13:00 +22°C° 0 mm 4 mps 734 mmHg 56%
    14:00 +23°C° 0 mm 4 mps 734 mmHg 55%
    15:00 +22°C° 0.3 mm 4 mps 734 mmHg 62%
    16:00 +21°C° 0.3 mm 4 mps 734 mmHg 70%
    17:00 +20°C° 0.3 mm 4 mps 734 mmHg 77%
    18:00 +18°C° 0 mm 4 mps 735 mmHg 81%
    19:00 +17°C° 0 mm 4 mps 735 mmHg 84%
    20:00 +14°C° 0 mm 3 mps 735 mmHg 88%
    21:00 +13°C° 0 mm 3 mps 736 mmHg 88%
    22:00 +12°C° 0 mm 3 mps 736 mmHg 89%
    23:00 +12°C° 0 mm 2 mps 736 mmHg 89%
    Show more